RH
21 20 19 18 17 16 16 17 17 17 17 17 17 17 17 17 17 17 18 18 18 17 17 18 18 18 18 18 19 20 21 22 23 25 26 26 26 26 25 25 25 24 24 24 25 26 27 28 29 29 30 29 29 29 29 29 29 29 30 30 30 31 32 33 34 33 27 31 35 39 40 39 37 36 36 34 33 33 33 32 33 35 37 38 38 38 37 37 38 38 37 35 34 34 34 35 36 37 35 34 36 39 40
24 23 23 21 20 18 18 18 18 18 18 18 18 18 19 20 20 19 18 19 19 20 20 20 20 20 20 21 21 21 22 23 24 26 27 27 27 27 27 27 27 26 26 27 27 28 29 30 31 32 32 32 31 31 31 31 31 31 31 31 32 32 33 34 34 32 27 32 35 37 39 40 40 39 39 35 33 33 33 32 32 33 37 39 39 39 39 38 38 38 37 33 33 33 34 35 36 36 35 32 35 38 40
27 26 26 25 23 21 20 19 19 19 19 19 19 19 20 23 25 24 21 20 20 20 21 22 22 22 22 22 22 22 22 23 25 26 27 27 28 28 28 29 29 29 29 29 30 31 31 32 33 33 33 33 32 32 32 33 32 32 33 33 34 35 35 35 34 31 28 33 36 37 39 40 40 40 41 38 37 36 35 34 33 33 35 38 39 39 38 37 37 38 37 34 33 35 36 36 36 35 34 30 32 36 39
28 28 28 27 26 25 23 22 21 21 20 20 20 19 20 23 27 29 27 24 22 21 23 23 23 23 23 23 23 23 24 24 25 26 27 28 28 29 29 30 30 31 31 32 33 33 33 34 34 34 34 33 33 33 33 34 34 34 35 35 36 36 35 34 33 31 27 29 34 38 40 38 39 40 40 39 37 35 34 36 36 35 33 37 38 38 36 36 36 37 38 36 35 35 37 37 37 36 36 33 34 35 38
28 28 28 28 28 27 26 25 25 24 24 23 22 21 21 22 25 27 28 28 26 24 23 23 24 24 24 24 24 24 24 25 26 26 26 27 27 28 29 30 31 31 32 33 34 34 35 35 35 35 34 34 34 34 34 35 35 36 36 37 36 35 34 33 32 30 28 28 32 37 37 38 37 37 36 36 37 37 35 37 39 39 35 38 38 38 36 39 40 41 41 39 37 36 37 38 39 40 42 40 39 38 39
28 28 28 28 28 28 28 27 27 28 29 30 28 25 23 24 24 25 26 27 26 25 24 24 23 24 24 24 24 25 25 25 25 26 26 26 27 27 29 30 31 31 32 33 34 35 35 35 35 35 34 34 34 34 34 35 35 36 36 35 34 33 32 32 31 29 28 28 29 31 35 40 40 38 36 36 37 38 38 37 37 37 36 37 37 37 37 41 42 42 42 39 38 38 38 39 41 43 45 44 43 43 44
28 28 28 28 28 28 28 28 29 31 34 35 33 29 26 27 27 27 27 26 25 24 24 24 24 24 24 24 24 24 24 25 25 25 25 26 26 27 28 29 30 31 31 32 34 35 35 35 36 36 36 36 35 35 34 34 34 34 33 32 30 30 30 30 30 29 28 28 30 31 31 38 39 37 35 36 38 40 40 39 38 37 36 37 37 37 38 41 42 42 41 40 38 37 38 38 37 38 40 41 42 43 44
29 28 28 28 28 28 29 29 29 30 33 34 32 30 30 30 31 31 29 27 25 25 24 24 24 24 24 24 24 24 24 24 24 24 25 25 26 27 28 29 30 31 32 33 34 35 36 36 36 36 36 36 36 35 34 34 33 32 31 29 28 27 28 28 28 28 28 29 30 31 30 37 38 37 36 37 39 40 40 41 40 38 37 38 38 39 40 42 42 42 42 42 41 41 41 39 38 36 35 37 37 38 38
28 28 28 28 28 29 29 30 30 30 31 31 32 32 32 32 32 31 29 27 26 26 25 25 24 24 24 24 24 24 25 25 25 25 25 25 26 27 28 29 30 32 33 34 35 36 36 36 36 36 35 35 34 34 33 33 32 30 29 28 27 27 27 28 28 28 28 29 30 32 34 35 36 37 38 40 41 42 41 42 41 40 39 39 39 40 41 41 41 41 41 42 42 41 41 41 38 36 36 37 36 35 35
28 28 28 27 28 28 29 30 31 31 31 31 32 32 32 32 32 31 29 28 27 26 26 26 25 25 25 25 25 25 25 25 25 25 25 26 26 27 27 28 29 31 32 33 33 34 34 34 33 33 33 33 33 32 32 31 30 29 28 28 28 28 28 28 29 29 28 30 32 35 39 39 39 38 40 40 42 42 42 43 42 42 41 41 41 42 42 42 42 41 40 41 41 41 41 40 40 40 40 38 37 35 33
27 27 27 27 28 28 29 31 33 35 35 33 33 33 33 33 32 31 30 29 28 27 27 27 27 26 26 26 26 26 25 25 25 26 26 27 27 28 28 29 29 30 30 30 30 30 30 30 30 31 31 31 31 31 31 30 30 29 29 29 29 29 29 29 29 29 29 32 37 40 42 42 42 42 41 41 42 42 43 44 43 43 43 43 44 44 43 43 43 41 39 41 41 40 40 39 39 39 40 39 37 35 34
27 27 27 27 27 28 29 30 34 38 40 36 34 34 34 34 33 32 31 30 29 28 28 28 28 27 27 27 27 26 26 26 26 26 27 27 28 29 29 30 30 30 30 30 29 29 28 29 29 29 30 30 30 30 30 29 29 29 29 29 29 29 29 29 29 29 32 38 41 43 43 43 43 43 43 44 45 45 44 44 45 45 45 45 45 45 45 44 44 43 41 41 39 38 38 38 37 37 39 38 37 36 35
27 28 28 28 28 28 28 29 32 34 36 35 34 34 35 35 35 34 33 32 31 30 29 29 29 29 29 28 28 27 27 27 27 27 27 28 28 29 29 30 30 30 31 30 30 30 29 29 29 29 29 29 29 29 29 29 29 29 29 29 29 29 29 29 29 31 35 40 43 44 44 45 45 45 46 46 47 47 45 46 46 47 47 46 45 45 46 45 45 44 43 42 40 38 37 37 36 36 37 38 37 37 36
27 28 28 28 28 28 29 29 30 31 32 33 33 34 35 35 36 36 35 34 33 32 31 31 30 30 30 30 29 29 28 28 28 28 29 29 29 30 30 31 31 31 31 31 31 31 30 30 29 29 29 29 29 29 29 29 29 30 30 30 30 29 29 30 33 37 41 44 45 46 47 47 47 47 48 48 49 48 46 47 48 48 48 47 47 46 46 46 45 44 44 43 41 39 37 37 36 36 37 37 37 36 36
28 28 28 29 29 29 29 30 30 30 31 32 32 33 34 35 35 36 36 36 35 35 34 33 32 32 31 31 31 30 30 29 29 30 30 31 31 31 31 32 32 32 32 32 32 32 32 31 31 30 30 30 30 30 30 30 30 30 30 30 30 30 31 35 39 43 45 46 47 47 48 48 48 49 49 49 49 49 48 48 49 48 48 47 47 47 46 46 45 44 43 42 40 40 39 38 37 37 37 37 37 36 36
29 29 29 29 29 30 30 30 30 31 31 32 32 32 33 34 35 36 36 37 37 36 36 35 34 33 33 32 32 32 31 31 31 31 31 32 32 32 33 33 33 33 33 33 33 33 32 32 32 31 31 31 31 31 31 31 31 31 31 31 31 32 35 40 44 46 47 47 48 49 48 49 49 49 49 48 48 48 48 48 47 47 46 45 45 45 45 44 43 42 42 41 40 39 40 39 38 37 36 37 38 38 36
30 30 29 30 30 30 30 31 31 31 31 31 31 32 32 33 34 35 36 37 37 37 37 36 36 35 34 34 33 33 33 32 32 32 32 33 33 33 34 34 34 34 33 33 33 33 33 32 32 32 32 31 31 31 31 31 31 31 31 31 32 35 41 44 46 47 48 48 49 49 49 49 48 48 47 47 47 47 46 45 45 44 43 42 42 41 42 42 41 41 40 40 40 39 39 39 38 36 36 37 37 37 37
30 30 30 30 31 31 31 31 31 32 32 32 31 32 32 33 34 35 36 37 38 38 38 37 37 36 35 35 35 34 34 34 33 33 33 33 33 34 34 33 33 33 33 33 32 32 32 32 32 32 32 32 32 32 32 32 31 32 32 32 35 39 44 45 46 47 47 48 48 48 48 47 47 47 46 46 46 45 44 44 43 43 43 42 41 40 40 40 39 39 40 40 39 39 38 37 36 35 35 35 34 34 35
31 31 31 31 31 31 31 31 32 32 32 32 32 32 32 33 34 35 37 38 39 39 39 39 38 37 36 35 35 35 35 34 34 34 34 34 33 33 33 32 32 32 32 32 32 32 32 32 32 32 32 32 32 32 32 32 32 32 32 33 37 42 45 46 47 47 47 48 48 48 48 47 46 46 44 44 44 44 44 43 44 44 44 43 41 40 38 38 38 38 39 39 39 39 38 37 36 35 34 33 32 32 33
31 31 32 32 32 32 32 32 32 33 33 33 33 33 32 33 34 36 37 39 40 40 41 40 39 38 36 35 35 35 34 35 35 35 35 34 33 33 31 31 31 30 30 30 31 31 31 32 32 32 33 33 33 33 33 33 33 33 34 36 40 44 46 47 48 48 48 48 47 47 46 45 43 42 40 40 40 40 40 41 42 43 43 42 41 40 38 37 37 36 37 37 38 38 37 37 36 35 34 33 31 31 31
31 31 32 32 32 32 32 33 33 34 34 34 34 34 34 35 35 36 38 39 40 41 42 41 40 40 38 37 36 35 35 35 35 35 34 33 33 32 31 30 30 29 29 29 29 29 29 30 30 31 32 33 33 33 34 34 34 34 35 38 42 45 46 45 45 45 44 43 42 41 40 38 37 36 35 35 34 35 36 37 38 39 40 40 40 39 38 37 36 35 35 35 35 36 37 36 36 35 35 33 32 31 31
31 31 31 32 32 32 33 33 34 34 35 35 35 35 35 36 37 37 38 39 40 41 42 42 41 41 40 39 37 36 35 35 34 33 33 32 32 31 31 30 30 29 29 28 27 27 27 27 27 28 28 29 29 30 30 30 31 31 31 35 38 40 40 39 39 39 38 37 37 36 35 34 33 32 32 31 31 31 32 33 34 35 36 37 38 38 39 37 36 34 33 34 34 35 36 36 36 35 34 33 32 32 31
32 32 32 32 32 32 33 33 34 35 36 36 36 36 36 37 38 38 39 40 41 41 42 42 41 41 41 39 37 36 35 34 33 32 31 31 31 31 31 30 30 30 29 28 28 27 26 25 25 25 25 25 25 25 25 25 25 25 26 30 32 34 35 35 35 35 35 35 34 33 33 32 31 31 30 30 29 29 29 30 31 31 32 33 35 36 38 37 36 34 33 33 33 34 34 35 34 34 33 32 31 31 31
32 32 32 32 32 32 33 34 35 36 36 37 37 37 37 38 39 39 40 40 41 41 42 42 42 41 41 39 37 36 35 33 32 31 30 30 30 30 30 30 30 30 29 29 28 28 27 26 25 25 24 24 24 24 24 24 24 24 24 26 28 30 32 33 33 33 33 33 32 32 32 31 30 29 28 27 26 26 26 27 27 28 29 30 32 33 35 35 35 34 32 32 32 32 33 33 33 33 32 32 31 30 30
33 33 33 32 32 33 33 34 35 36 37 38 38 38 37 38 40 41 41 41 42 42 42 42 42 41 40 38 37 35 34 33 31 29 29 29 29 29 29 30 30 29 29 29 29 28 28 27 26 26 25 25 24 24 24 24 24 23 23 24 25 27 29 31 32 32 32 31 31 30 30 29 28 27 26 25 25 25 25 25 26 27 27 28 30 31 32 33 33 33 32 32 32 32 32 33 33 33 33 32 31 30 30
33 34 33 33 33 33 33 34 35 37 38 38 38 38 38 39 40 42 42 42 42 42 42 42 42 41 40 38 37 36 34 32 31 30 29 29 29 29 29 29 29 29 29 29 29 29 28 28 27 26 26 25 25 25 24 24 24 23 23 23 24 25 27 28 29 29 29 29 28 27 26 26 25 25 24 24 24 24 24 25 25 26 27 28 29 30 32 32 33 33 32 32 32 33 33 33 33 34 33 32 31 31 30
34 34 34 34 34 33 34 34 36 37 38 38 38 38 38 40 42 43 43 42 42 42 42 42 42 41 40 38 37 36 35 33 32 31 30 29 29 29 28 28 28 28 28 28 28 28 28 28 27 27 26 26 26 25 25 25 24 24 23 22 22 23 24 26 27 27 27 26 26 25 24 24 24 24 23 24 24 24 25 25 26 27 27 28 30 31 32 32 33 33 33 33 33 33 34 34 34 34 33 33 32 31 30
34 35 35 35 34 34 34 35 36 38 39 39 39 38 39 41 43 44 44 43 43 43 43 43 42 41 40 39 37 36 35 33 32 32 31 31 30 29 29 28 28 27 27 27 27 28 28 28 27 27 26 26 26 26 25 25 24 24 23 22 21 22 22 23 24 24 25 24 24 23 23 23 23 24 24 25 25 25 26 26 27 28 29 30 30 31 32 32 32 33 33 33 33 33 34 34 34 34 33 33 32 31 29
34 35 35 35 35 35 34 35 36 38 39 39 39 39 39 42 44 45 45 44 43 43 43 43 42 41 40 39 38 36 35 34 33 32 32 31 31 30 29 28 28 27 27 27 27 27 27 27 26 26 26 26 25 25 25 24 24 23 23 22 21 21 21 21 22 22 23 22 22 22 22 22 22 23 24 25 26 27 27 28 29 29 30 30 31 31 31 31 32 32 32 33 33 33 33 34 34 34 33 33 32 31 29
34 35 35 35 35 35 35 35 36 37 38 38 38 39 39 42 44 45 45 44 43 43 43 43 42 41 41 40 38 36 35 34 33 33 32 32 31 31 30 29 28 28 27 27 27 27 27 27 26 26 25 25 25 25 24 24 23 23 23 22 22 21 21 21 21 21 21 21 21 21 21 21 21 22 23 25 26 28 29 30 30 31 31 31 31 31 31 31 31 31 32 32 32 33 33 34 34 34 34 33 32 31 30
34 35 35 35 35 35 35 36 36 37 37 37 38 38 39 42 44 45 45 44 43 42 42 42 41 41 41 39 38 37 35 35 34 33 33 32 31 31 30 29 29 28 28 27 28 28 28 27 27 26 26 25 25 25 24 24 23 23 23 23 23 22 22 21 21 21 21 20 20 20 21 21 22 23 24 26 27 28 30 31 32 32 32 32 32 32 31 31 31 32 32 32 32 33 33 34 34 35 35 34 33 32 31
34 35 35 36 36 36 36 36 36 37 37 37 37 38 39 41 43 44 45 44 43 42 41 41 41 40 40 38 37 36 36 35 34 34 33 32 31 31 30 29 28 28 28 28 28 28 28 28 27 26 26 25 25 25 24 24 24 23 23 24 24 23 23 23 22 22 22 21 21 22 22 23 24 25 26 27 28 29 31 31 32 33 34 34 34 33 33 33 33 33 33 33 33 33 34 34 35 35 35 35 34 33 32
34 35 35 36 36 36 36 36 37 36 36 36 36 37 38 40 42 44 44 44 42 41 41 40 40 40 39 38 37 36 36 35 34 34 33 32 31 30 29 29 28 28 28 28 28 28 28 28 27 27 26 25 25 25 24 24 24 24 24 24 25 25 24 24 24 24 23 23 23 24 24 25 26 27 28 28 29 31 31 32 33 34 34 34 35 35 35 35 35 35 35 35 35 35 35 35 35 35 35 35 35 34 33
34 35 36 36 37 37 37 37 36 36 35 35 36 37 38 39 41 42 44 43 42 41 40 40 39 39 38 37 37 36 36 35 35 34 33 33 32 31 30 29 29 29 28 29 29 29 29 29 28 27 26 25 25 25 25 25 25 25 25 25 25 25 25 25 25 24 24 24 24 25 25 27 28 29 30 31 32 33 34 34 35 35 35 36 36 36 36 36 36 37 37 37 37 38 38 37 36 36 35 35 35 34 34
33 35 36 37 37 37 37 37 37 36 35 35 36 37 38 39 40 41 43 42 41 40 40 39 39 38 38 37 37 36 36 36 35 35 34 33 32 32 31 30 30 30 30 30 31 31 31 30 29 28 27 27 26 26 26 26 26 27 27 26 26 26 26 25 25 25 25 25 25 25 26 27 28 30 31 32 34 35 36 37 37 38 38 38 38 38 37 37 37 37 37 38 38 39 40 40 39 38 37 36 35 35 35
32 34 35 37 37 38 38 37 37 36 35 36 37 38 38 39 39 40 42 42 41 40 40 39 38 38 38 37 37 36 36 36 35 35 34 34 33 33 32 32 32 32 32 33 33 33 33 32 31 30 29 28 28 27 27 28 28 28 28 28 28 27 27 26 26 25 25 25 25 25 26 27 29 30 31 33 34 35 37 38 39 40 41 41 41 41 40 40 40 39 39 39 40 41 42 42 41 40 39 38 37 37 36
30 32 34 36 37 38 38 38 37 36 36 36 37 38 39 39 39 40 41 41 41 41 40 39 38 37 37 37 36 36 36 35 35 35 34 34 34 33 33 33 33 34 34 35 35 35 35 33 32 31 30 29 29 29 29 29 30 30 30 30 29 28 28 27 26 26 25 25 25 26 27 28 29 30 31 32 33 34 36 37 39 40 41 42 43 43 43 42 42 42 41 41 42 43 44 44 44 43 42 42 41 40 39
28 30 32 34 36 37 38 38 37 37 36 36 37 38 39 39 39 39 41 42 42 41 40 39 37 36 36 36 35 35 35 35 35 34 34 34 34 33 33 34 34 35 35 36 36 36 35 34 33 32 31 30 30 30 30 31 31 31 31 31 30 30 29 29 28 27 26 26 26 26 27 28 29 30 31 32 33 33 35 36 38 39 41 42 43 43 43 43 43 43 43 43 43 44 45 46 46 46 45 45 44 44 43
26 28 30 32 34 36 37 37 37 37 37 37 37 38 39 39 39 39 40 41 42 41 40 38 36 35 34 34 34 34 34 34 34 33 33 33 32 32 32 33 33 34 35 35 36 35 35 33 32 31 30 30 30 31 31 31 32 32 32 32 31 31 30 30 29 29 28 27 27 27 28 29 30 31 32 32 33 33 34 35 36 37 39 41 42 43 44 44 44 43 43 43 44 44 45 46 47 47 47 46 46 46 46
25 27 29 31 32 34 36 37 37 37 37 37 38 39 40 39 39 39 40 41 42 41 40 37 35 34 33 32 32 32 32 32 32 32 32 31 31 30 30 31 32 33 33 34 34 33 32 31 30 29 29 29 29 30 31 31 31 32 32 32 32 32 31 31 31 30 29 29 28 28 28 29 30 31 32 33 33 33 34 34 34 35 37 38 40 41 43 43 44 44 43 43 43 44 44 45 46 46 46 46 46 45 45
26 27 28 30 32 33 35 36 37 37 38 38 39 39 39 38 38 38 39 41 42 42 40 37 35 33 32 31 31 31 31 31 31 30 30 29 29 28 29 29 30 31 32 32 31 31 30 28 27 27 26 27 28 29 30 30 31 31 32 32 32 32 32 32 32 31 31 30 30 29 29 30 30 31 32 33 33 33 33 33 33 34 34 36 37 39 40 41 42 43 43 43 43 43 43 43 44 44 45 45 45 44 44
27 28 29 30 32 33 34 36 37 38 39 40 39 39 38 38 38 38 40 41 42 42 40 37 34 32 31 31 31 31 31 30 30 29 29 28 27 27 27 28 29 30 30 30 29 28 27 25 24 24 24 25 26 27 29 29 30 31 31 32 32 32 32 32 32 32 32 32 31 31 30 30 30 31 32 32 33 33 33 32 32 32 33 34 35 36 38 39 40 41 41 41 42 42 42 42 42 43 43 43 43 43 43
29 29 30 31 32 33 34 35 37 38 40 40 40 39 39 39 39 39 40 42 42 42 40 37 34 32 31 31 31 31 30 30 29 29 28 27 26 26 26 28 29 29 29 28 27 26 24 23 22 22 22 23 24 26 28 29 30 31 32 32 33 33 33 33 33 33 33 33 32 32 31 31 31 31 32 32 32 32 32 32 32 32 32 33 34 35 36 37 38 39 39 40 40 40 41 41 41 41 41 41 41 42 42
31 32 32 33 33 34 35 36 37 39 40 40 40 40 41 41 40 40 41 42 42 42 40 37 34 32 31 31 31 31 30 30 29 29 28 26 26 25 26 28 29 30 29 28 26 25 23 21 21 21 21 22 24 26 28 29 30 32 33 33 34 34 34 34 34 34 34 34 33 33 33 32 32 32 32 32 32 32 32 32 32 33 33 34 34 35 36 37 37 38 38 38 38 39 39 39 39 39 39 39 40 40 41
33 34 34 34 35 35 36 37 38 39 40 41 41 42 43 42 41 41 41 42 43 42 40 37 35 33 32 31 31 31 31 30 30 29 28 27 26 26 26 29 31 31 31 29 27 24 22 21 20 21 21 23 25 27 29 30 32 33 34 35 35 35 35 35 35 35 35 34 34 34 33 33 33 33 33 33 33 33 33 33 34 34 35 35 36 37 38 38 38 39 39 39 39 39 39 39 39 38 38 38 38 39 40
36 36 36 36 36 36 37 37 38 39 40 41 42 42 43 43 42 42 42 43 43 42 40 38 35 34 32 32 32 31 31 31 30 29 29 28 27 27 28 30 32 34 33 31 28 25 23 21 21 21 22 24 26 28 30 32 33 34 35 36 36 37 36 36 36 36 36 35 35 34 34 34 33 33 33 33 33 33 33 34 34 35 35 36 37 38 39 39 39 40 40 40 40 39 39 39 39 38 38 38 37 38 38
37 38 37 37 37 37 37 38 39 40 41 42 42 42 43 43 42 42 42 43 43 42 41 38 36 34 33 33 32 32 32 32 31 30 30 29 29 29 30 31 33 35 35 33 30 27 24 22 21 22 23 25 27 29 31 33 35 36 37 37 38 38 38 38 38 37 37 37 36 36 35 35 34 34 34 34 34 34 34 34 34 34 35 35 36 36 37 38 38 38 38 38 38 39 38 38 38 38 37 37 37 36 37
39 39 39 39 39 38 38 38 39 40 41 42 42 42 43 43 42 42 42 43 43 43 42 39 36 34 34 34 33 33 33 33 32 32 31 30 30 30 31 33 34 35 36 34 31 28 25 23 22 22 24 26 28 30 32 34 36 37 38 39 39 39 39 39 39 39 39 38 38 37 37 36 36 35 35 35 34 34 34 34 34 34 34 34 34 35 35 35 35 35 35 35 35 35 35 35 35 35 35 35 34 34 34
40 40 40 40 40 40 39 38 39 40 41 41 42 42 42 42 43 43 43 43 44 43 42 40 37 35 33 34 34 34 34 34 33 33 32 32 31 31 32 34 35 36 37 35 33 30 27 24 23 23 24 26 28 31 33 35 36 38 39 39 40 40 40 40 40 40 40 40 40 39 39 38 37 37 36 36 35 35 35 34 34 34 34 34 34 34 34 33 33 33 33 33 33 33 33 33 32 32 32 32 31 31 31
41 41 41 41 41 41 40 39 39 39 40 41 42 43 43 43 43 44 44 44 44 44 43 40 37 35 34 34 34 34 35 35 35 34 34 33 32 33 33 35 37 38 38 36 34 31 28 26 24 24 24 26 28 31 33 35 37 38 39 40 40 40 41 41 40 40 40 40 40 40 40 39 39 38 38 37 37 36 36 35 35 34 34 34 33 33 33 33 33 33 33 32 32 32 32 31 31 31 30 29 29 29 28
41 41 41 42 42 42 41 40 39 39 40 41 42 43 44 44 45 45 45 45 45 44 43 40 37 35 34 34 34 35 35 35 36 36 35 34 34 34 35 37 38 39 40 38 35 32 29 27 26 25 25 27 29 31 33 35 37 38 39 40 40 41 41 41 41 41 41 41 41 41 41 40 40 40 39 39 38 37 37 36 36 35 35 35 34 34 34 33 33 33 33 33 33 33 32 32 31 30 30 29 28 27 27
42 41 41 42 43 43 42 41 40 39 39 41 42 43 44 45 45 45 45 45 45 45 43 41 38 36 35 35 35 35 35 36 36 37 36 36 35 35 36 37 39 41 42 41 38 34 31 28 27 26 26 27 29 31 33 35 37 38 39 40 41 41 41 41 41 41 41 42 42 42 42 41 41 41 40 39 39 39 38 38 37 37 36 36 36 35 35 35 35 34 34 34 34 34 33 33 32 31 30 29 28 27 26
42 42 42 43 44 44 44 42 41 40 40 40 42 43 44 45 46 46 46 46 46 45 44 42 39 37 36 35 35 35 36 36 37 37 37 37 36 36 37 38 40 42 44 44 41 37 33 30 29 28 28 28 29 31 32 34 36 38 39 40 41 41 41 42 42 42 43 43 43 43 43 42 42 41 41 40 40 40 39 39 39 38 38 37 37 37 37 36 36 36 36 35 35 35 35 34 33 32 31 29 28 27 26
43 43 43 44 44 45 45 44 43 42 41 41 41 43 44 45 46 46 46 46 46 46 45 43 40 38 36 36 36 36 37 37 37 38 38 38 38 38 38 39 41 44 46 46 43 40 36 33 31 30 29 30 30 32 33 35 36 38 39 40 40 41 41 42 42 43 43 44 44 44 44 43 43 42 41 41 41 41 40 40 40 39 39 39 38 38 37 37 37 37 36 36 36 36 36 35 34 33 31 29 28 27 26
44 44 44 45 45 46 46 45 45 44 42 42 42 43 44 45 46 46 46 47 47 48 47 45 43 40 38 37 37 37 37 38 38 39 39 38 38 39 39 40 42 44 46 46 45 42 37 35 33 31 30 30 31 32 34 35 37 38 39 40 40 41 41 42 43 44 44 45 45 45 45 44 43 43 42 42 41 41 41 41 40 40 40 40 39 38 38 38 37 37 37 37 37 36 36 35 34 33 31 29 28 26 25
45 45 45 45 46 46 46 46 46 45 44 43 43 43 44 45 46 47 48 49 50 51 51 49 46 43 41 39 39 38 39 39 39 39 40 40 39 39 40 41 43 45 46 47 46 44 39 37 34 32 31 32 33 33 35 36 37 39 40 40 41 41 41 42 43 44 45 45 46 46 45 45 44 43 42 42 42 42 41 41 41 41 41 40 39 39 38 38 37 37 37 37 37 36 36 35 34 33 31 29 27 26 24
46 46 46 46 46 47 47 47 47 47 46 45 44 44 45 47 48 49 50 51 52 53 53 52 49 46 42 41 41 40 40 40 40 41 42 42 42 41 42 43 44 46 48 49 48 45 42 39 36 33 32 33 34 35 36 37 38 39 40 40 41 41 41 42 43 44 45 46 46 46 46 45 44 44 43 42 42 42 42 42 42 41 41 40 40 39 38 38 37 37 37 37 37 36 36 36 35 33 32 30 28 26 24
47 47 47 47 47 47 48 48 48 48 47 47 46 46 47 48 50 51 52 53 53 53 53 52 50 47 43 42 42 42 41 40 41 43 44 45 45 45 44 44 45 47 50 50 50 48 45 42 38 36 34 35 35 36 37 38 39 40 40 41 41 41 42 42 43 44 45 45 46 46 46 45 44 44 43 42 42 42 42 41 41 41 41 40 39 39 38 38 37 37 37 37 37 37 37 36 35 34 32 30 28 26 25
48 47 47 47 48 48 48 49 49 49 49 49 48 48 49 50 51 51 52 52 52 53 53 52 50 47 44 44 44 44 43 43 44 46 48 49 49 48 47 47 47 48 51 52 52 51 48 45 42 39 36 36 36 38 39 40 40 41 41 41 42 42 42 43 43 44 45 45 45 46 45 45 44 43 43 42 42 42 41 41 41 40 40 40 39 39 38 38 38 38 38 38 38 38 38 37 36 35 33 30 28 27 25
49 49 49 49 49 49 50 50 51 51 51 51 51 50 50 50 51 51 51 51 52 52 53 52 50 48 47 47 47 47 46 45 47 49 52 54 53 52 50 50 50 51 52 54 54 53 52 49 46 43 40 38 38 39 41 41 42 42 43 43 42 43 43 43 43 44 45 45 46 45 45 45 44 43 42 42 42 41 41 40 40 39 39 39 39 39 38 38 38 38 38 38 38 38 38 37 36 35 33 31 28 27 25
53 53 52 51 51 51 51 52 53 53 53 52 52 51 51 51 51 51 51 51 51 52 53 53 51 50 49 49 49 48 46 46 48 51 55 57 57 55 53 52 51 52 54 55 56 55 54 52 50 48 45 42 41 41 42 43 43 44 44 43 43 44 44 44 44 44 45 45 46 45 45 45 44 43 42 42 41 41 40 40 39 39 39 39 39 39 38 38 38 38 38 38 39 39 39 38 37 35 33 31 29 27 26